Location: ?????
(38.3715°N, 23.0573°E)
Time: 09:51:41
(UTC+00:00)

MOS 1 - Pass Details

Date: 03 August 2024
Orbit: 877 x 890 km, 98.9° (Epoch: 14 September)

Event Time Altitude Azimuth Distance (km) Brightness Sun altitude
Exits shadow 19:14:20 18° 171° (S) 2,001 5.7 -17.4°
Maximum altitude 19:18:35 79° 256° (WSW) 906 4.4 -18.0°
Drops below altitude 10° 19:24:18 10° 344° (NNW) 2,560 7.6 -18.9°
Sets 19:26:42 0° 346° (NNW) 3,505 8.4 -19.2°
